Date,TemperatureHighF,TemperatureAvgF,TemperatureLowF,DewpointHighF,DewpointAvgF,DewpointLowF,HumidityHigh,HumidityAvg,HumidityLow,PressureMaxIn,PressureMinIn,WindSpeedMaxMPH,WindSpeedAvgMPH,GustSpeedMaxMPH,PrecipitationSumIn
2013-9-1,89.0,79.6,70.3,77.4,73.7,68.7,96,83,66,29.81,29.72,6,0,7,0.00
2013-9-2,92.0,80.9,72.2,76.9,73.6,71.1,98,80,52,29.76,29.67,5,0,8,0.04
2013-9-3,86.3,78.6,71.0,73.3,65.7,58.1,93,67,45,29.91,29.67,9,2,12,0.00
2013-9-4,81.9,71.1,60.3,65.5,60.0,56.1,86,69,47,30.03,29.91,6,0,9,0.00
2013-9-5,86.4,73.8,62.9,65.2,60.9,52.3,93,66,44,30.09,29.96,9,1,12,0.00
2013-9-6,76.2,67.8,61.1,58.6,53.1,48.2,90,60,39,30.22,30.09,7,1,11,0.00
2013-9-7,82.5,68.6,55.9,65.3,60.4,54.7,97,77,47,30.11,29.90,6,0,8,0.00
2013-9-8,88.3,75.8,65.2,70.3,65.7,60.0,94,73,45,30.01,29.83,8,1,14,0.00
2013-9-9,78.5,71.9,64.8,70.0,60.6,52.0,87,68,55,30.16,30.01,7,1,11,0.00
2013-9-10,89.4,78.8,69.9,77.4,73.3,68.4,96,84,66,30.15,30.05,3,0,7,0.00
2013-9-11,92.5,80.8,72.7,79.1,74.7,71.6,97,82,61,30.11,29.97,6,0,8,0.00
2013-9-12,91.8,76.3,69.9,77.8,71.4,67.9,98,85,61,29.97,29.70,8,0,12,0.32
2013-9-13,79.3,70.9,64.2,69.5,61.2,52.8,98,75,43,29.88,29.65,12,2,13,0.05
2013-9-14,69.7,62.3,54.9,54.7,50.5,47.8,92,66,47,30.12,29.88,7,2,10,0.00
2013-9-15,78.1,63.7,50.9,61.1,55.2,49.8,98,77,41,30.19,30.06,6,0,9,0.00
2013-9-16,72.9,66.0,59.2,61.6,59.2,55.8,94,79,58,30.19,30.00,7,1,9,0.00
2013-9-17,66.8,59.5,52.5,58.1,48.3,37.1,93,68,36,30.39,30.19,9,2,14,0.00
2013-9-18,70.9,59.5,48.2,54.0,50.0,40.2,97,74,35,30.31,30.15,4,0,6,0.00
2013-9-19,77.2,63.9,52.0,61.2,56.3,50.7,96,78,50,30.16,30.05,5,0,8,0.00
2013-9-20,78.8,66.5,55.1,65.3,59.7,53.7,96,80,58,30.06,29.93,4,0,9,0.00
2013-9-21,79.6,68.1,60.6,68.7,63.5,58.3,98,86,64,29.95,29.64,10,1,13,0.31
2013-9-22,72.2,65.4,58.6,63.0,56.7,50.3,98,76,51,29.90,29.68,8,2,10,0.07
2013-9-23,67.2,59.2,51.7,52.9,48.3,43.5,92,68,47,30.05,29.90,7,2,12,0.01
2013-9-24,74.2,58.9,47.2,53.7,49.1,45.8,96,74,41,30.08,29.89,8,1,8,0.00
2013-9-25,75.0,61.1,50.6,57.2,52.1,46.7,96,76,37,29.94,29.84,4,0,7,0.00
2013-9-26,75.5,63.2,55.3,61.2,56.6,53.6,97,81,48,30.03,29.87,4,0,6,0.00
2013-9-27,72.5,64.1,57.3,60.8,58.0,55.5,97,82,60,30.20,30.03,5,0,5,0.00
2013-9-28,72.0,64.6,58.4,59.5,57.0,55.0,94,77,58,30.26,30.17,7,1,9,0.00
2013-9-29,74.8,63.4,54.5,61.3,56.5,53.2,97,80,47,30.17,30.02,4,0,7,0.00
2013-9-30,77.0,62.3,52.3,59.6,55.5,51.2,98,80,47,30.06,29.94,4,0,5,0.00